KPF71K LEIZ-EDDM

Flight info

Callsign KPF71K
Flight time 2h 9m
Altitude 38000
Route ANZAN L27 YAKXU N871 TOPTU DCT GAI DCT NOQAS DCT MURRO T544 LSE/N0455F390 DCT BELUS/N0455F380 DCT OMASI N871 BERSU/N0463F300 N871 DITON T103 NUNRI/N0459F390 T103 BETOS BETOS1A
Aircraft CL60/M-SBDE1E2E3FGHIJ1J4J5J7M3RWXYZ/LB1V1D1

Departure

Time 2026-05-09 09:49
Airport La Perdiz - Torre De Juan Abad Airfield (LEIZ)

Arrival

Time 2026-05-09 11:59
Airport Munich Airport (EDDM)
Time Latitude Longitude Altitude Speed Heading
2026-05-09 09:38 38.51272 -3.36785 2734 ft 0 kts
2026-05-09 09:45 38.51295 -3.36767 2735 ft 8 kts 37°
2026-05-09 09:45 38.51342 -3.36794 2735 ft 13 kts 273°
2026-05-09 09:45 38.51351 -3.36947 2732 ft 20 kts 274°
2026-05-09 09:45 38.51365 -3.37143 2738 ft 22 kts 274°
2026-05-09 09:46 38.51377 -3.37338 2750 ft 21 kts 274°
2026-05-09 09:46 38.51387 -3.37521 2762 ft 19 kts 274°
2026-05-09 09:46 38.51399 -3.37687 2773 ft 8 kts 275°
2026-05-09 09:46 38.51394 -3.37738 2778 ft 5 kts 236°
2026-05-09 09:47 38.51405 -3.37758 2781 ft 1 kts 60°
2026-05-09 09:47 38.51405 -3.37739 2778 ft 0 kts 95°
2026-05-09 09:48 38.51391 -3.37554 2764 ft 66 kts 95°
2026-05-09 09:48 38.51324 -3.36563 2749 ft 149 kts 96°
2026-05-09 09:49 38.51203 -3.35110 3227 ft 175 kts 99°
2026-05-09 09:49 38.51146 -3.34450 3560 ft 183 kts 99°
2026-05-09 09:49 38.51019 -3.32833 4319 ft 197 kts 98°
2026-05-09 09:49 38.50883 -3.31173 5042 ft 185 kts 99°
2026-05-09 09:50 38.50841 -3.29383 5345 ft 228 kts 82°
2026-05-09 09:50 38.51693 -3.27473 5782 ft 269 kts 40°
2026-05-09 09:50 38.53416 -3.26503 6748 ft 281 kts
2026-05-09 09:50 38.55371 -3.26353 7796 ft 291 kts
2026-05-09 09:51 38.57391 -3.26253 8998 ft 295 kts 360°
2026-05-09 09:51 38.59444 -3.26140 10176 ft 300 kts 359°
2026-05-09 09:51 38.61609 -3.26018 10665 ft 331 kts 360°
2026-05-09 09:51 38.64004 -3.25875 11192 ft 356 kts
2026-05-09 09:52 38.66544 -3.25696 12058 ft 368 kts
2026-05-09 09:52 38.69109 -3.25453 12970 ft 376 kts
2026-05-09 09:52 38.71718 -3.25173 13904 ft 382 kts
2026-05-09 09:52 38.74394 -3.24886 14760 ft 390 kts
2026-05-09 09:53 38.77104 -3.24594 15528 ft 399 kts
2026-05-09 09:53 38.79667 -3.24319 16248 ft 406 kts
2026-05-09 09:53 38.82538 -3.24009 17019 ft 414 kts
2026-05-09 09:53 38.85400 -3.23699 17727 ft 421 kts
2026-05-09 09:54 38.88372 -3.23377 18458 ft 427 kts
2026-05-09 09:54 38.91338 -3.23054 19227 ft 431 kts
2026-05-09 09:54 38.94332 -3.22727 20008 ft 434 kts
2026-05-09 09:54 38.97339 -3.22398 20750 ft 438 kts
2026-05-09 09:55 39.00383 -3.21856 21465 ft 441 kts 14°
2026-05-09 09:55 39.03277 -3.20584 22119 ft 445 kts 22°
2026-05-09 09:55 39.06188 -3.19159 22809 ft 447 kts 22°
2026-05-09 09:55 39.09079 -3.17753 23479 ft 449 kts 23°
2026-05-09 09:56 39.12026 -3.16320 24153 ft 451 kts 23°
2026-05-09 09:56 39.15054 -3.14847 24676 ft 457 kts 23°
2026-05-09 09:56 39.18036 -3.13394 25143 ft 463 kts 23°
2026-05-09 09:56 39.21073 -3.11917 25683 ft 466 kts 23°
2026-05-09 09:57 39.24122 -3.10431 26126 ft 472 kts 23°
2026-05-09 09:57 39.27228 -3.08917 26498 ft 478 kts 23°
2026-05-09 09:57 39.30384 -3.07377 26894 ft 483 kts 23°
2026-05-09 09:57 39.33515 -3.05850 27371 ft 485 kts 23°
2026-05-09 09:58 39.36690 -3.04300 27756 ft 489 kts 23°
2026-05-09 09:58 39.39870 -3.02746 28243 ft 490 kts 23°
2026-05-09 09:58 39.43105 -3.01156 28580 ft 495 kts 24°
2026-05-09 09:58 39.46313 -2.99577 28863 ft 499 kts 23°
2026-05-09 09:59 39.49579 -2.97968 29214 ft 502 kts 23°
2026-05-09 09:59 39.52871 -2.96347 29542 ft 505 kts 24°
2026-05-09 09:59 39.56166 -2.94722 29976 ft 505 kts 24°
2026-05-09 09:59 39.59428 -2.93113 30414 ft 505 kts 23°
2026-05-09 10:00 39.62715 -2.91495 30896 ft 504 kts 23°
2026-05-09 10:00 39.65985 -2.89883 31348 ft 503 kts 23°
2026-05-09 10:00 39.69273 -2.88262 31785 ft 503 kts 23°
2026-05-09 10:00 39.72548 -2.86644 32179 ft 502 kts 23°
2026-05-09 10:01 39.75818 -2.85027 32556 ft 502 kts 22°
2026-05-09 10:01 39.79091 -2.83408 32947 ft 502 kts 22°
2026-05-09 10:01 39.82349 -2.81794 33272 ft 502 kts 22°
2026-05-09 10:01 39.85592 -2.80186 33568 ft 503 kts 22°
2026-05-09 10:02 39.88891 -2.78549 33919 ft 503 kts 22°
2026-05-09 10:02 39.92138 -2.76935 34218 ft 504 kts 22°
2026-05-09 10:02 39.95406 -2.75310 34491 ft 504 kts 22°
2026-05-09 10:02 39.98707 -2.73666 34817 ft 504 kts 22°
2026-05-09 10:03 40.01960 -2.72045 35066 ft 502 kts 21°
2026-05-09 10:03 40.05205 -2.70427 35290 ft 501 kts 21°
2026-05-09 10:03 40.08459 -2.68802 35525 ft 500 kts 22°
2026-05-09 10:03 40.11734 -2.67165 35784 ft 497 kts 21°
2026-05-09 10:04 40.14966 -2.65548 36011 ft 496 kts 21°
2026-05-09 10:04 40.18174 -2.63942 36232 ft 494 kts 21°
2026-05-09 10:04 40.21405 -2.62321 36398 ft 494 kts 21°
2026-05-09 10:04 40.24596 -2.60720 36296 ft 492 kts 21°
2026-05-09 10:05 40.27786 -2.59117 36459 ft 493 kts 21°
2026-05-09 10:05 40.31000 -2.57501 36620 ft 494 kts 20°
2026-05-09 10:05 40.34219 -2.55880 36784 ft 494 kts 20°
2026-05-09 10:05 40.37445 -2.54215 36961 ft 495 kts 23°
2026-05-09 10:06 40.40512 -2.52302 37172 ft 493 kts 27°
2026-05-09 10:06 40.43598 -2.50268 37374 ft 492 kts 26°
2026-05-09 10:06 40.46631 -2.48273 37579 ft 491 kts 26°
2026-05-09 10:06 40.49695 -2.46259 37737 ft 491 kts 26°
2026-05-09 10:07 40.52775 -2.44232 37890 ft 491 kts 26°
2026-05-09 10:07 40.58905 -2.40196 37918 ft 498 kts 26°
2026-05-09 10:08 40.65174 -2.36063 37955 ft 503 kts 26°
2026-05-09 10:08 40.71429 -2.31933 37961 ft 505 kts 27°
2026-05-09 10:09 40.77747 -2.27754 37946 ft 504 kts 27°
2026-05-09 10:09 40.83992 -2.23617 37948 ft 503 kts 27°
2026-05-09 10:10 40.90250 -2.19462 37947 ft 502 kts 27°
2026-05-09 10:10 40.96512 -2.15298 37943 ft 502 kts 27°
2026-05-09 10:11 41.02760 -2.11134 37951 ft 501 kts 27°
2026-05-09 10:11 41.08970 -2.06881 37957 ft 501 kts 31°
2026-05-09 10:12 41.14946 -2.01908 37959 ft 502 kts 33°
2026-05-09 10:12 41.20889 -1.96915 37949 ft 502 kts 33°
2026-05-09 10:13 41.26703 -1.92022 37957 ft 502 kts 33°
2026-05-09 10:13 41.32614 -1.87045 37953 ft 502 kts 33°
2026-05-09 10:14 41.38537 -1.82052 37937 ft 502 kts 33°
2026-05-09 10:14 41.44468 -1.77041 37934 ft 503 kts 33°
2026-05-09 10:15 41.50352 -1.72063 37941 ft 503 kts 33°
2026-05-09 10:15 41.56263 -1.67052 37943 ft 504 kts 33°
2026-05-09 10:16 41.62179 -1.62026 37932 ft 505 kts 33°
2026-05-09 10:16 41.68119 -1.56971 37931 ft 505 kts 33°
2026-05-09 10:17 41.74043 -1.51917 37934 ft 505 kts 33°
2026-05-09 10:17 41.79956 -1.46864 37922 ft 505 kts 34°
2026-05-09 10:18 41.85915 -1.41760 37926 ft 506 kts 33°
2026-05-09 10:18 41.91836 -1.36678 37917 ft 506 kts 33°
2026-05-09 10:19 41.97803 -1.31544 37917 ft 506 kts 34°
2026-05-09 10:19 42.03733 -1.26432 37917 ft 506 kts 34°
2026-05-09 10:20 42.09643 -1.21287 37927 ft 507 kts 36°
2026-05-09 10:20 42.15182 -1.15360 37923 ft 506 kts 42°
2026-05-09 10:21 42.20612 -1.09298 37932 ft 507 kts 42°
2026-05-09 10:21 42.26038 -1.03236 37921 ft 507 kts 41°
2026-05-09 10:22 42.31512 -0.97116 37932 ft 507 kts 41°
2026-05-09 10:22 42.36942 -0.91035 37937 ft 509 kts 41°
2026-05-09 10:23 42.42347 -0.84782 37937 ft 508 kts 46°
2026-05-09 10:23 42.46852 -0.77529 37946 ft 505 kts 56°
2026-05-09 10:24 42.51127 -0.69951 37945 ft 505 kts 55°
2026-05-09 10:24 42.55402 -0.62372 37953 ft 505 kts 55°
2026-05-09 10:25 42.59683 -0.54773 37960 ft 505 kts 55°
2026-05-09 10:25 42.63934 -0.47218 37964 ft 505 kts 55°
2026-05-09 10:26 42.68214 -0.39596 37965 ft 505 kts 55°
2026-05-09 10:26 42.72462 -0.32016 37964 ft 505 kts 56°
2026-05-09 10:27 42.76751 -0.24346 37980 ft 505 kts 56°
2026-05-09 10:27 42.81053 -0.16808 37966 ft 506 kts 53°
2026-05-09 10:28 42.85535 -0.09370 37974 ft 507 kts 53°
2026-05-09 10:28 42.90000 -0.01938 37970 ft 507 kts 53°
2026-05-09 10:29 42.94494 0.05561 37962 ft 509 kts 53°
2026-05-09 10:29 42.98963 0.13041 37962 ft 509 kts 53°
2026-05-09 10:30 43.03429 0.20531 37947 ft 507 kts 53°
2026-05-09 10:30 43.07898 0.28047 37949 ft 507 kts 53°
2026-05-09 10:31 43.12324 0.35509 37936 ft 507 kts 53°
2026-05-09 10:31 43.16793 0.43063 37931 ft 507 kts 53°
2026-05-09 10:32 43.21209 0.50548 37923 ft 507 kts 53°
2026-05-09 10:32 43.25661 0.58112 37912 ft 508 kts 53°
2026-05-09 10:33 43.30103 0.65677 37913 ft 508 kts 54°
2026-05-09 10:33 43.34558 0.73287 37912 ft 508 kts 54°
2026-05-09 10:34 43.38973 0.80845 37912 ft 508 kts 53°
2026-05-09 10:34 43.45615 0.92254 37912 ft 508 kts 54°
2026-05-09 10:35 43.50024 0.99853 37920 ft 508 kts 53°
2026-05-09 10:35 43.54422 1.07452 37926 ft 509 kts 53°
2026-05-09 10:36 43.58841 1.15107 37925 ft 509 kts 53°
2026-05-09 10:36 43.63250 1.22764 37927 ft 509 kts 53°
2026-05-09 10:37 43.67659 1.30443 37932 ft 509 kts 53°
2026-05-09 10:37 43.71917 1.38231 37933 ft 508 kts 55°
2026-05-09 10:38 43.76127 1.46145 37933 ft 508 kts 55°
2026-05-09 10:38 43.80287 1.53980 37934 ft 507 kts 55°
2026-05-09 10:39 43.84467 1.61865 37926 ft 508 kts 55°
2026-05-09 10:39 43.88647 1.69769 37931 ft 507 kts 56°
2026-05-09 10:40 43.92827 1.77689 37939 ft 507 kts 56°
2026-05-09 10:40 43.96962 1.85616 37941 ft 507 kts 57°
2026-05-09 10:41 44.00985 1.93699 37942 ft 507 kts 57°
2026-05-09 10:41 44.05009 2.01803 37950 ft 507 kts 57°
2026-05-09 10:42 44.09016 2.09889 37961 ft 507 kts 57°
2026-05-09 10:42 44.12994 2.17937 37961 ft 507 kts 57°
2026-05-09 10:43 44.17013 2.26085 37966 ft 507 kts 57°
2026-05-09 10:43 44.20982 2.34152 37969 ft 507 kts 57°
2026-05-09 10:44 44.24989 2.42317 37980 ft 507 kts 57°
2026-05-09 10:44 44.28966 2.50445 37992 ft 507 kts 57°
2026-05-09 10:46 44.38886 2.70810 37997 ft 507 kts 57°
2026-05-09 10:46 44.42851 2.78988 38002 ft 506 kts 57°
2026-05-09 10:47 44.46820 2.87198 38014 ft 506 kts 57°
2026-05-09 10:47 44.50742 2.95333 38005 ft 506 kts 57°
2026-05-09 10:48 44.54685 3.03536 38004 ft 507 kts 57°
2026-05-09 10:48 44.58627 3.11759 38011 ft 507 kts 57°
2026-05-09 10:49 44.62392 3.20104 38011 ft 506 kts 62°
2026-05-09 10:49 44.65833 3.28714 38014 ft 506 kts 62°
2026-05-09 10:50 44.69287 3.37365 38017 ft 505 kts 62°
2026-05-09 10:50 44.72723 3.45990 38022 ft 506 kts 62°
2026-05-09 10:51 44.76162 3.54643 38023 ft 506 kts 62°
2026-05-09 10:51 44.79620 3.63369 38020 ft 507 kts 62°
2026-05-09 10:52 44.83043 3.72035 38025 ft 506 kts 62°
2026-05-09 10:52 44.86471 3.80731 38025 ft 506 kts 62°
2026-05-09 10:53 44.89890 3.89429 38038 ft 506 kts 63°
2026-05-09 10:53 44.93299 3.98128 38038 ft 505 kts 62°
2026-05-09 10:54 44.96685 4.06794 38047 ft 504 kts 62°
2026-05-09 10:54 45.00085 4.15522 38047 ft 504 kts 62°
2026-05-09 10:55 45.03474 4.24251 38048 ft 505 kts 62°
2026-05-09 10:55 45.06842 4.32954 38050 ft 506 kts 62°
2026-05-09 10:56 45.10206 4.41671 38040 ft 506 kts 62°
2026-05-09 10:56 45.13586 4.50460 38040 ft 506 kts 62°
2026-05-09 10:57 45.16969 4.59283 38038 ft 507 kts 62°
2026-05-09 10:57 45.20336 4.68098 38025 ft 506 kts 62°
2026-05-09 10:58 45.23685 4.76889 38017 ft 506 kts 62°
2026-05-09 10:58 45.27036 4.85713 38009 ft 506 kts 62°
2026-05-09 10:59 45.30366 4.94510 38008 ft 507 kts 62°
2026-05-09 10:59 45.33704 5.03357 38015 ft 506 kts 62°
2026-05-09 11:00 45.37040 5.12227 38025 ft 507 kts 62°
2026-05-09 11:00 45.40352 5.21064 38041 ft 507 kts 62°
2026-05-09 11:01 45.43673 5.29953 38043 ft 507 kts 62°
2026-05-09 11:01 45.47030 5.38823 38034 ft 507 kts 58°
2026-05-09 11:02 45.51305 5.46801 38036 ft 503 kts 43°
2026-05-09 11:02 45.56438 5.53521 38033 ft 502 kts 39°
2026-05-09 11:03 45.61639 5.60168 38036 ft 502 kts 39°
2026-05-09 11:03 45.66877 5.66883 38026 ft 501 kts 39°
2026-05-09 11:04 45.72065 5.73548 38023 ft 501 kts 39°
2026-05-09 11:04 45.77277 5.80243 38030 ft 500 kts 39°
2026-05-09 11:05 45.82472 5.86927 38040 ft 500 kts 39°
2026-05-09 11:05 45.87639 5.93591 38041 ft 500 kts 39°
2026-05-09 11:06 45.92820 6.00293 38038 ft 500 kts 39°
2026-05-09 11:06 45.97968 6.06968 38038 ft 499 kts 39°
2026-05-09 11:07 46.03144 6.13696 38041 ft 499 kts 39°
2026-05-09 11:07 46.08291 6.20407 38051 ft 498 kts 39°
2026-05-09 11:08 46.13286 6.27394 38061 ft 498 kts 41°
2026-05-09 11:08 46.18234 6.34430 38069 ft 498 kts 41°
2026-05-09 11:09 46.23147 6.41437 38081 ft 498 kts 41°
2026-05-09 11:09 46.28078 6.48485 38091 ft 498 kts 41°
2026-05-09 11:10 46.33009 6.55551 38105 ft 497 kts 41°
2026-05-09 11:10 46.37932 6.62625 38119 ft 496 kts 41°
2026-05-09 11:11 46.42853 6.69714 38094 ft 496 kts 42°
2026-05-09 11:11 46.47759 6.76799 38097 ft 495 kts 42°
2026-05-09 11:12 46.52657 6.83892 38104 ft 494 kts 42°
2026-05-09 11:12 46.57360 6.91182 38112 ft 496 kts 49°
2026-05-09 11:13 46.61704 6.99021 38111 ft 495 kts 49°
2026-05-09 11:13 46.66007 7.06795 38101 ft 494 kts 49°
2026-05-09 11:14 46.70357 7.14673 38092 ft 494 kts 49°
2026-05-09 11:14 46.74660 7.22484 38088 ft 494 kts 49°
2026-05-09 11:15 46.78985 7.30357 38084 ft 494 kts 49°
2026-05-09 11:15 46.83271 7.38178 38091 ft 493 kts 49°
2026-05-09 11:16 46.87540 7.45998 38080 ft 492 kts 49°
2026-05-09 11:16 46.91804 7.53840 38072 ft 491 kts 48°
2026-05-09 11:17 46.96068 7.61701 38066 ft 491 kts 48°
2026-05-09 11:17 47.00314 7.69553 38070 ft 490 kts 50°
2026-05-09 11:18 47.04563 7.77431 38067 ft 490 kts 50°
2026-05-09 11:18 47.08802 7.85313 38074 ft 490 kts 49°
2026-05-09 11:19 47.12995 7.93146 38075 ft 489 kts 50°
2026-05-09 11:19 47.16753 8.01583 38082 ft 490 kts 56°
2026-05-09 11:20 47.20323 8.09983 38077 ft 490 kts 56°
2026-05-09 11:20 47.23930 8.18486 38071 ft 489 kts 56°
2026-05-09 11:21 47.27529 8.26996 38073 ft 488 kts 56°
2026-05-09 11:21 47.30743 8.35890 38075 ft 490 kts 67°
2026-05-09 11:22 47.32917 8.45516 38074 ft 491 kts 70°
2026-05-09 11:22 47.35024 8.55099 38072 ft 491 kts 70°
2026-05-09 11:23 47.37127 8.64702 38078 ft 490 kts 70°
2026-05-09 11:23 47.39214 8.74270 38073 ft 489 kts 71°
2026-05-09 11:24 47.41309 8.83908 38070 ft 489 kts 71°
2026-05-09 11:24 47.43382 8.93492 38089 ft 489 kts 71°
2026-05-09 11:25 47.45445 9.03069 38065 ft 489 kts 71°
2026-05-09 11:25 47.46484 9.07903 37822 ft 493 kts 71°
2026-05-09 11:25 47.47507 9.12683 37574 ft 493 kts 71°
2026-05-09 11:25 47.48548 9.17554 37306 ft 491 kts 71°
2026-05-09 11:26 47.49574 9.22362 36911 ft 490 kts 71°
2026-05-09 11:26 47.50589 9.27135 36533 ft 488 kts 71°
2026-05-09 11:26 47.51608 9.31936 36172 ft 488 kts 70°
2026-05-09 11:26 47.52632 9.36773 35840 ft 489 kts 70°
2026-05-09 11:27 47.53643 9.41558 35476 ft 488 kts 70°
2026-05-09 11:27 47.54650 9.46332 35106 ft 488 kts 70°
2026-05-09 11:27 47.55659 9.51131 34727 ft 488 kts 70°
2026-05-09 11:27 47.56666 9.55932 34353 ft 488 kts 70°
2026-05-09 11:28 47.57606 9.60746 33953 ft 489 kts 74°
2026-05-09 11:28 47.58186 9.65480 33603 ft 490 kts 82°
2026-05-09 11:28 47.58397 9.70783 33220 ft 492 kts 89°
2026-05-09 11:28 47.58246 9.75851 32841 ft 493 kts 93°
2026-05-09 11:29 47.58030 9.80944 32465 ft 493 kts 93°
2026-05-09 11:29 47.57820 9.85950 32099 ft 484 kts 93°
2026-05-09 11:29 47.57612 9.90867 31737 ft 473 kts 93°
2026-05-09 11:29 47.57407 9.95697 31379 ft 463 kts 92°
2026-05-09 11:30 47.57206 10.00395 30869 ft 452 kts 93°
2026-05-09 11:30 47.57008 10.04992 30409 ft 437 kts 93°
2026-05-09 11:30 47.56818 10.09368 30065 ft 422 kts 93°
2026-05-09 11:30 47.56629 10.13708 29521 ft 413 kts 93°
2026-05-09 11:31 47.56445 10.17895 28915 ft 407 kts 93°
2026-05-09 11:31 47.56261 10.22062 28278 ft 402 kts 93°
2026-05-09 11:31 47.56079 10.26151 27612 ft 398 kts 93°
2026-05-09 11:31 47.55898 10.30204 26950 ft 393 kts 93°
2026-05-09 11:32 47.55717 10.34219 26338 ft 388 kts 93°
2026-05-09 11:32 47.55537 10.38159 25745 ft 382 kts 93°
2026-05-09 11:32 47.55357 10.42069 25099 ft 378 kts 92°
2026-05-09 11:32 47.55178 10.45929 24468 ft 373 kts 92°
2026-05-09 11:33 47.55003 10.49681 23848 ft 368 kts 92°
2026-05-09 11:33 47.54938 10.53484 23193 ft 362 kts 83°
2026-05-09 11:33 47.56693 10.60231 21749 ft 352 kts 57°
2026-05-09 11:34 47.57938 10.63312 21015 ft 350 kts 57°
2026-05-09 11:34 47.59167 10.66373 20333 ft 346 kts 58°
2026-05-09 11:34 47.60404 10.69457 19669 ft 342 kts 58°
2026-05-09 11:34 47.61602 10.72449 19010 ft 339 kts 58°
2026-05-09 11:35 47.62801 10.75445 18604 ft 333 kts 58°
2026-05-09 11:35 47.63991 10.78417 18098 ft 335 kts 58°
2026-05-09 11:35 47.65159 10.81339 17685 ft 333 kts 58°
2026-05-09 11:35 47.66344 10.84302 17207 ft 334 kts 58°
2026-05-09 11:36 47.67527 10.87264 16787 ft 331 kts 58°
2026-05-09 11:36 47.68947 10.89893 16343 ft 325 kts 39°
2026-05-09 11:36 47.70691 10.91996 15876 ft 322 kts 36°
2026-05-09 11:36 47.72441 10.94071 15493 ft 318 kts 37°
2026-05-09 11:37 47.74171 10.96129 15032 ft 317 kts 37°
2026-05-09 11:37 47.75892 10.98177 14632 ft 314 kts 37°
2026-05-09 11:37 47.77599 11.00209 14203 ft 313 kts 37°
2026-05-09 11:37 47.79297 11.02233 13777 ft 311 kts 37°
2026-05-09 11:38 47.80980 11.04240 13371 ft 309 kts 37°
2026-05-09 11:38 47.82645 11.06228 12967 ft 306 kts 37°
2026-05-09 11:38 47.84316 11.08223 12555 ft 305 kts 37°
2026-05-09 11:38 47.85972 11.10202 12206 ft 300 kts 37°
2026-05-09 11:39 47.87573 11.12110 12120 ft 289 kts 37°
2026-05-09 11:39 47.89106 11.13935 12108 ft 273 kts 37°
2026-05-09 11:39 47.90566 11.15674 12106 ft 266 kts 37°
2026-05-09 11:40 47.93489 11.19155 11938 ft 268 kts 37°
2026-05-09 11:40 47.94948 11.20894 11834 ft 266 kts 37°
2026-05-09 11:40 47.96383 11.22607 11733 ft 265 kts 37°
2026-05-09 11:40 47.97835 11.24340 11631 ft 266 kts 37°
2026-05-09 11:41 47.99293 11.26083 11531 ft 264 kts 37°
2026-05-09 11:41 48.00721 11.27790 11447 ft 264 kts 37°
2026-05-09 11:41 48.02170 11.29524 11335 ft 264 kts 37°
2026-05-09 11:41 48.03596 11.31232 11239 ft 263 kts 37°
2026-05-09 11:42 48.05035 11.32958 11139 ft 263 kts 37°
2026-05-09 11:42 48.06461 11.34680 11097 ft 262 kts 39°
2026-05-09 11:42 48.07664 11.36727 11080 ft 265 kts 53°
2026-05-09 11:42 48.08744 11.39004 10797 ft 269 kts 53°
2026-05-09 11:43 48.09818 11.41262 10468 ft 267 kts 53°
2026-05-09 11:43 48.10891 11.43513 10127 ft 266 kts 53°
2026-05-09 11:43 48.11859 11.45871 9809 ft 263 kts 68°
2026-05-09 11:43 48.12231 11.48549 9474 ft 262 kts 83°
2026-05-09 11:44 48.12427 11.51237 9139 ft 260 kts 83°
2026-05-09 11:44 48.12633 11.53941 8815 ft 258 kts 83°
2026-05-09 11:44 48.12835 11.56579 8486 ft 256 kts 83°
2026-05-09 11:44 48.13039 11.59231 8158 ft 254 kts 82°
2026-05-09 11:45 48.13237 11.61813 7991 ft 245 kts 82°
2026-05-09 11:45 48.13430 11.64342 7721 ft 247 kts 82°
2026-05-09 11:45 48.13618 11.66783 7426 ft 246 kts 83°
2026-05-09 11:45 48.13817 11.69377 7168 ft 242 kts 83°
2026-05-09 11:46 48.14149 11.71826 6921 ft 239 kts 64°
2026-05-09 11:46 48.15234 11.73659 6664 ft 235 kts 29°
2026-05-09 11:46 48.16815 11.74199 6426 ft 234 kts 359°
2026-05-09 11:46 48.18436 11.73999 6182 ft 236 kts 355°
2026-05-09 11:47 48.20070 11.73720 5932 ft 237 kts 354°
2026-05-09 11:47 48.21684 11.73211 5765 ft 235 kts 335°
2026-05-09 11:47 48.22886 11.71556 5645 ft 238 kts 299°
2026-05-09 11:47 48.23242 11.69146 5525 ft 241 kts 269°
2026-05-09 11:48 48.23106 11.66629 5404 ft 243 kts 265°
2026-05-09 11:48 48.22921 11.64125 5282 ft 244 kts 265°
2026-05-09 11:48 48.22725 11.61580 5150 ft 243 kts 264°
2026-05-09 11:48 48.22531 11.59076 5029 ft 243 kts 264°
2026-05-09 11:49 48.22331 11.56532 4986 ft 242 kts 264°
2026-05-09 11:49 48.22135 11.53986 4989 ft 243 kts 264°
2026-05-09 11:49 48.21944 11.51471 4988 ft 243 kts 264°
2026-05-09 11:49 48.21755 11.48942 4991 ft 242 kts 265°
2026-05-09 11:50 48.21569 11.46451 4990 ft 242 kts 265°
2026-05-09 11:50 48.21382 11.43922 4995 ft 242 kts 264°
2026-05-09 11:50 48.21197 11.41417 4996 ft 242 kts 265°
2026-05-09 11:50 48.21008 11.38909 4936 ft 245 kts 264°
2026-05-09 11:51 48.20808 11.36339 4731 ft 244 kts 264°
2026-05-09 11:51 48.20679 11.33823 4584 ft 240 kts 276°
2026-05-09 11:51 48.21259 11.31563 4466 ft 235 kts 312°
2026-05-09 11:51 48.22597 11.30251 4348 ft 229 kts 348°
2026-05-09 11:52 48.24164 11.30409 4229 ft 225 kts 25°
2026-05-09 11:52 48.25324 11.31831 4119 ft 224 kts 51°
2026-05-09 11:52 48.26275 11.33722 3997 ft 226 kts 54°
2026-05-09 11:52 48.27193 11.35625 3991 ft 226 kts 54°
2026-05-09 11:53 48.28115 11.37542 3989 ft 227 kts 54°
2026-05-09 11:53 48.29039 11.39470 3988 ft 227 kts 54°
2026-05-09 11:53 48.29965 11.41405 3991 ft 223 kts 54°
2026-05-09 11:53 48.30837 11.43228 4006 ft 207 kts 54°
2026-05-09 11:54 48.31489 11.45039 4000 ft 195 kts 76°
2026-05-09 11:54 48.31739 11.47061 3987 ft 194 kts 78°
2026-05-09 11:54 48.31968 11.49050 3991 ft 195 kts 80°
2026-05-09 11:54 48.32151 11.51079 3990 ft 194 kts 81°
2026-05-09 11:55 48.32320 11.53083 4009 ft 184 kts 81°
2026-05-09 11:56 48.33050 11.62185 3162 ft 171 kts 82°
2026-05-09 11:56 48.33190 11.63964 2949 ft 169 kts 82°
2026-05-09 11:56 48.33322 11.65653 2713 ft 155 kts 82°
2026-05-09 11:57 48.33438 11.67156 2557 ft 135 kts 83°
2026-05-09 11:57 48.33550 11.68559 2366 ft 134 kts 81°
2026-05-09 11:57 48.33661 11.69956 2188 ft 134 kts 84°
2026-05-09 11:57 48.33770 11.71351 2020 ft 134 kts 82°
2026-05-09 11:58 48.33880 11.72758 1847 ft 135 kts 82°
2026-05-09 11:58 48.33987 11.74162 1650 ft 134 kts 83°
2026-05-09 11:58 48.34098 11.75541 1497 ft 127 kts 82°
2026-05-09 11:58 48.34192 11.76714 1487 ft 98 kts 82°
2026-05-09 11:59 48.34250 11.77327 1485 ft 39 kts 72°
2026-05-09 11:59 48.34356 11.77617 1484 ft 23 kts 53°
2026-05-09 11:59 48.34412 11.77732 1483 ft 7 kts 53°
2026-05-09 11:59 48.34429 11.77763 1483 ft 0 kts 53°
2026-05-09 12:05 48.34437 11.77780 1483 ft 1 kts 53°
2026-05-09 12:05 48.34448 11.77801 1483 ft 0 kts 53°
2026-05-09 12:05 48.34459 11.77822 1483 ft 4 kts 52°
2026-05-09 12:06 48.34480 11.77864 1483 ft 4 kts 52°
2026-05-09 12:06 48.34497 11.77891 1483 ft 2 kts 38°
2026-05-09 12:06 48.34499 11.77894 1483 ft 0 kts 36°
2026-05-09 12:09 48.34504 11.77899 1483 ft 2 kts 35°
2026-05-09 12:09 48.34532 11.77920 1483 ft 3 kts
2026-05-09 12:10 48.34598 11.77912 1483 ft 0 kts 354°
2026-05-09 12:11 48.34611 11.77910 1483 ft 5 kts 354°
2026-05-09 12:11 48.34655 11.77870 1483 ft 9 kts 289°
2026-05-09 12:11 48.34650 11.77742 1483 ft 15 kts 263°
2026-05-09 12:12 48.34639 11.77590 1483 ft 13 kts 262°
2026-05-09 12:12 48.34631 11.77463 1484 ft 13 kts 282°
2026-05-09 12:12 48.34657 11.77418 1484 ft 0 kts 342°
2026-05-09 12:12 48.34685 11.77411 1484 ft 8 kts 354°
2026-05-09 12:13 48.34765 11.77396 1484 ft 12 kts 345°
2026-05-09 12:13 48.34793 11.77281 1484 ft 14 kts 262°
2026-05-09 12:13 48.34782 11.77126 1484 ft 12 kts 265°
2026-05-09 12:13 48.34739 11.77087 1484 ft 6 kts 171°
2026-05-09 12:14 48.34720 11.77067 1485 ft 5 kts 258°
2026-05-09 12:14 48.34716 11.77022 1485 ft 0 kts 264°